EST,Max TemperatureF,Mean TemperatureF,Min TemperatureF,Max Dew PointF,MeanDew PointF,Min DewpointF,Max Humidity, Mean Humidity, Min Humidity, Max Sea Level PressureIn, Mean Sea Level PressureIn, Min Sea Level PressureIn, Max VisibilityMiles, Mean VisibilityMiles, Min VisibilityMiles, Max Wind SpeedMPH, Mean Wind SpeedMPH, Max Gust SpeedMPH,PrecipitationIn, CloudCover, Events, WindDirDegrees
2011-11-1,60,46,33,36,28,19,93,56,20,30.34,30.28,30.22,10,10,5,7,3,,0.00,,,222
2011-11-2,66,54,42,32,28,25,61,38,22,30.39,30.31,30.23,10,10,10,7,4,,0.00,,,193
2011-11-3,64,55,46,46,32,21,93,49,22,30.21,30.06,29.91,10,9,2,16,7,21,0.00,,,184
2011-11-4,51,48,46,46,43,39,100,87,71,30.17,29.99,29.84,10,8,1,15,6,21,0.00,,,340
2011-11-5,60,46,33,39,25,12,87,49,17,30.30,30.26,30.18,10,10,10,10,3,16,0.00,,,121
2011-11-6,62,50,39,30,24,12,56,40,27,30.42,30.35,30.28,10,10,10,13,8,18,0.00,,,166
2011-11-7,66,54,42,43,39,36,87,58,35,30.43,30.36,30.32,10,10,10,7,3,,0.00,,,181
2011-11-8,68,56,44,41,38,36,81,52,30,30.31,30.25,30.18,10,9,5,8,3,,0.00,,,193
2011-11-9,64,55,46,54,43,37,94,62,45,30.15,30.08,30.00,10,10,5,20,7,25,0.00,,,192
2011-11-10,51,43,35,46,29,16,93,65,34,30.07,30.01,29.94,10,10,10,15,7,23,0.00,,,299
2011-11-11,46,37,28,21,19,16,74,49,31,30.12,30.07,30.01,10,10,10,14,9,23,0.00,,,249
2011-11-12,57,48,39,27,21,16,49,35,22,30.23,30.17,30.12,10,10,10,20,13,26,0.00,,,210
2011-11-13,57,50,44,37,27,18,51,37,26,30.15,30.08,30.01,10,10,10,20,13,29,0.00,,,194
2011-11-14,66,62,59,55,52,46,73,68,59,30.08,30.02,29.93,10,10,10,28,17,37,0.00,,,205
2011-11-15,64,58,53,59,54,52,100,91,73,30.03,29.98,29.94,10,5,0,24,12,37,0.00,,,332
2011-11-16,62,54,46,59,53,45,100,93,88,29.98,29.89,29.82,10,6,1,18,7,24,0.00,,,307
2011-11-17,46,38,30,45,26,12,100,71,38,30.30,30.12,29.94,10,7,0,17,9,22,0.00,,,308
2011-11-18,48,36,23,16,11,7,64,38,20,30.42,30.33,30.27,10,10,10,10,3,16,0.00,,,153
2011-11-19,59,47,35,41,25,9,62,42,26,30.34,30.27,30.23,10,10,10,21,10,30,0.00,,,178
2011-11-20,64,58,53,55,50,43,94,77,63,30.31,30.27,30.24,10,10,7,22,13,30,0.00,,,223
2011-11-21,60,58,55,59,56,54,100,94,82,30.30,30.25,30.21,10,5,0,15,10,22,0.00,,,218
2011-11-22,64,60,55,57,55,54,94,82,73,30.20,30.08,29.92,10,9,2,16,7,24,0.00,,,179
2011-11-23,57,48,39,55,43,36,94,85,66,30.26,30.05,29.84,10,8,2,18,13,28,0.00,,,295
2011-11-24,60,46,32,39,33,25,100,67,33,30.39,30.34,30.28,10,9,0,8,2,,0.00,,,234
2011-11-25,62,48,35,34,26,18,81,49,18,30.36,30.31,30.25,10,10,10,17,8,26,0.00,,,211
2011-11-26,62,52,42,41,35,23,62,49,36,30.32,30.24,30.14,10,10,10,15,8,23,0.00,,,195
2011-11-27,64,60,55,46,44,41,67,55,42,30.12,30.01,29.94,10,10,10,21,14,30,0.00,,,161
2011-11-28,64,60,53,55,51,46,94,75,59,29.91,29.83,29.69,10,9,2,15,9,25,0.00,,,143
2011-11-29,48,40,33,46,35,28,100,88,75,29.78,29.72,29.67,10,8,0,21,9,25,0.00,,,222
2011-11-30,37,32,26,32,28,23,93,83,65,30.16,29.99,29.78,10,8,1,15,9,23,0.00,,,277